Terug naar catalogus

STARLINK-30710

ActiefCommunicatieVLEO
NORAD 57938·PAYLOAD·🇺🇸 United States

Gelanceerd Sep 25, 2023 vanaf Vandenberg Space Force Base

Loading…

Volgende Passages (komende 24 uur)

TLE

VersSource: CelesTrak SupGP

Epoch: Sep 15, 2026, 01:57 UTC

1 57938C 23148D   26258.08173611 -.00062529  00000+0 -18471-2 0  2586
2 57938  53.1589 210.7415 0001312  89.3796 323.0203 15.34427561    16

Volg STARLINK-30710 in realtime met AllMySat

Download on the App Store